[Iaude] MPEC V111: 2016 VA1 [a=1.18,e=0.42,i=29.2,H=23.4]

mpec at si.edu mpec at si.edu
Fri Nov 11 12:04:02 EST 2016


M.P.E.C. 2016-V111                               Issued 2016 Nov. 11, 16:59 UT
 
     The Minor Planet Electronic Circulars contain information on unusual
         minor planets and routine data on comets.  They are published
    on behalf of Division F of the International Astronomical Union by the
          Minor Planet Center, Smithsonian Astrophysical Observatory,
                          Cambridge, MA 02138, U.S.A.

             Prepared using the Tamkin Foundation Computer Network

                              MPC at CFA.HARVARD.EDU
            URL http://www.minorplanetcenter.net/    ISSN 1523-6714


                                   2016 VA1
 
                           Revision to MPEC 2016-V44
 
Additional Observations:
     K16V01A  C2016 11 08.35082 02 26 29.38 -01 53 05.1          17.3 RoEV111926
     K16V01A  C2016 11 08.35162 02 26 27.71 -01 52 47.3          17.3 RoEV111926
     K16V01A  C2016 11 08.35244 02 26 25.98 -01 52 29.3          17.3 RoEV111926
     K16V01A  C2016 11 09.16052 01 54 43.81 +03 50 28.2          17.0 RoEV111926
     K16V01A  C2016 11 09.16101 01 54 42.38 +03 50 43.1          17.1 RoEV111926
     K16V01A  C2016 11 09.16152 01 54 40.95 +03 50 58.1          17.0 RoEV111926
     K16V01A  C2016 11 09.16744 01 54 24.20 +03 53 52.5          16.7 RoEV111926
     K16V01A  C2016 11 09.16795 01 54 22.73 +03 54 07.7          16.9 RoEV111926
     K16V01A  C2016 11 09.16847 01 54 21.27 +03 54 23.0          16.8 RoEV111926
     K16V01A  C2016 11 10.11292 01 02 12.59 +12 51 25.7          16.7 RoEV111926
     K16V01A  C2016 11 10.11337 01 02 10.79 +12 51 42.6          16.6 RoEV111926
     K16V01A  C2016 11 10.11383 01 02 08.99 +12 52 00.2          16.7 RoEV111926
     K16V01A  C2016 11 10.11819 01 01 51.55 +12 54 47.1          16.7 RoEV111926
     K16V01A  C2016 11 10.11863 01 01 49.80 +12 55 03.8          16.8 RoEV111926
     K16V01A  C2016 11 10.11908 01 01 47.96 +12 55 21.2          17.0 RoEV111926
     K16V01A  C2016 11 10.11953 01 01 46.19 +12 55 38.4          16.8 RoEV111926
     K16V01A  C2016 11 10.11998 01 01 44.37 +12 55 55.9          16.8 RoEV111926
     K16V01A  C2016 11 10.12042 01 01 42.58 +12 56 12.8          16.7 RoEV111926
 
Observer details:
926 Tenagra II Observatory.  Observers M. Schwartz, P. R. Holvorcem.  Measurer
    M. Schwartz.  0.81-m f/7 Ritchey-Chretien + CCD.
 
Orbital elements:
2016 VA1                                                 Earth MOID = 0.0213 AU
Epoch 2016 July 31.0 TT = JDT 2457600.5                 MPC
M 233.31334              (2000.0)            P               Q
n   0.76938166     Peri.   96.69100     -0.71134151     -0.60618649
a   1.1795278      Node    46.76915     +0.27393685     -0.70519820
e   0.4215413      Incl.   29.22322     +0.64726490     -0.36774099
P   1.28           H   23.4           G   0.15           U   6
Residuals in seconds of arc
161105 G96  0.1-  0.1+    161106 H36  0.2+  0.3+    161109 926  0.4-  0.3+
161105 G96  0.2+  0.1+    161106 H36  0.1+  0.3+    161109 926  0.2-  0.2+
161105 G96  0.0   0.3+    161106 H36  0.3+  0.1-    161109 926  0.3+  0.2-
161105 G96  0.0   0.1+    161106 H36  0.2+  0.3-    161109 926  0.0   0.1-
161105 G96  0.1-  0.1+    161106 926  0.3-  0.2+    161109 926  0.2+  0.1-
161105 G96  0.3+  0.1-    161106 926  0.4-  0.2+    161110 926  0.3-  0.5+
161105 G96  0.1-  0.2+    161106 926  0.0   0.0     161110 926  0.3-  0.1+
161105 I52  0.1-  0.0     161106 Q62  0.5+  0.8-    161110 926  0.3+  0.1+
161105 I52  0.0   0.1+    161106 Q62  0.4+  0.6-    161110 926  0.4+  0.0
161105 I52  0.1-  0.2+    161106 900  0.8+  0.2+    161110 926  0.5+  0.1-
161105 I52  0.2+  0.2+    161106 900  0.3-  0.4-    161110 926  0.0   0.0
161105 E23  0.3+  0.1+    161106 900  0.6-  0.0     161110 926  0.5+  0.0
161105 E23  0.0   0.0     161106 900  0.0   0.6+    161110 926  0.2+  0.3+
161105 300  0.0   0.3-    161107 926  0.3-  0.2+    161110 926  0.1-  0.3+
161105 300  0.2-  0.4+    161107 926  0.2-  0.1+    161110 C77  0.1-  0.3+
161105 300  0.0   0.0     161107 926  0.0   0.1+    161110 C77  0.4+  0.1-
161105 300  0.3-  0.9-    161107 703  0.3+  0.3-    161110 C77  0.0   0.4-
161106 J95  0.2+  0.4+    161107 703  0.5-  0.3-    161110 C77  0.5+  0.0
161106 J95  0.0   0.7-    161107 703  0.4+  0.5+    161111 926  0.1-  0.0
161106 J95  0.2-  0.2+    161107 703  0.6-  0.2-    161111 926  0.0   0.2-
161106 G96  0.1+  0.1+    161108 926  0.3-  0.4-    161111 926  0.6-  0.2+
161106 G96  0.1+  0.1+    161108 926  0.2-  0.0     161111 926  0.1-  0.1-
161106 G96  0.0   0.1+    161108 926  0.4-  0.2+    161111 926  0.6-  0.3+
161106 H36  0.1+  0.1+    161109 926  0.2+  0.2-    161111 926  0.3+  0.4-

Ephemeris:
2016 VA1                 a,e,i = 1.18, 0.42, 29                  q = 0.6823
Date    TT    R. A. (2000) Decl.     Delta      r     Elong.  Phase     V
2016 10 12    04 29 09.0 -20 32 47   0.3400  1.2194   123.6    43.0    23.2
...
2016 10 27    04 19 29.9 -19 43 38   0.1703  1.1185   133.8    39.9    21.4
...
2016 11 04    03 44 10.7 -14 55 11   0.08360 1.0617   145.5    31.9    19.5
...
2016 11 10    01 09 18.8 +11 41 41   0.03132 1.0181   152.4    26.8    17.1
2016 11 11    23 56 05.6 +22 27 16   0.02888 1.0108   135.4    43.4    17.4
2016 11 12    22 29 33.5 +31 03 08   0.03046 1.0034   115.9    62.6    18.1
...
2016 11 18    18 28 24.1 +32 45 10   0.08067 0.9593    66.6   109.0    22.0
...
2016 11 26    17 38 18.9 +28 45 34   0.1648  0.9007    54.3   117.2    23.9
...
2016 12 11    17 12 52.1 +23 48 43   0.3263  0.7976    46.8   115.8    25.0

A. U. Tomatic                (C) Copyright 2016 MPC           M.P.E.C. 2016-V111




More information about the Iaude mailing list